| time (UTC) | temp F | wind direction | speed knots | gust knots | rain 1hr in | rain 24hr in | rain mn in | humidity % | barometer mb |
| 20260505224056 | 78 | 170 | 0.0 | 9.6 | 0.00 | 0.00 | 0.00 | 34 | 1008.0 |
| 20260505223555 | 78 | 0 | 1.7 | 13.0 | 0.00 | 0.00 | 0.00 | 36 | 1007.9 |
| 20260505223105 | 78 | 184 | 1.7 | 15.6 | 0.00 | 0.00 | 0.00 | 34 | 1007.8 |
| 20260505222556 | 78 | 233 | 2.6 | 15.6 | 0.00 | 0.00 | 0.00 | 33 | 1007.8 |
| 20260505222057 | 78 | 176 | 2.6 | 9.6 | 0.00 | 0.00 | 0.00 | 33 | 1007.8 |
| 20260505221608 | 78 | 155 | 3.5 | 10.4 | 0.00 | 0.00 | 0.00 | 33 | 1008.0 |
| 20260505221056 | 79 | 0 | 1.7 | 11.3 | 0.00 | 0.00 | 0.00 | 32 | 1008.0 |
| 20260505220600 | 79 | 198 | 1.7 | 13.9 | 0.00 | 0.00 | 0.00 | 33 | 1008.0 |
| 20260505220138 | 79 | 270 | 3.5 | 15.6 | 0.00 | 0.00 | 0.00 | 33 | 1007.9 |
| 20260505215557 | 79 | 149 | 5.2 | 15.6 | 0.00 | 0.00 | 0.00 | 34 | 1007.9 |
| 20260505215056 | 79 | 164 | 5.2 | 16.5 | 0.00 | 0.00 | 0.00 | 32 | 1007.9 |
| 20260505214616 | 79 | 0 | 4.3 | 18.2 | 0.00 | 0.00 | 0.00 | 32 | 1007.9 |
| 20260505214055 | 79 | 217 | 4.3 | 18.2 | 0.00 | 0.00 | 0.00 | 33 | 1007.9 |
| 20260505213558 | 79 | 187 | 3.5 | 18.2 | 0.00 | 0.00 | 0.00 | 33 | 1007.9 |
| 20260505213056 | 78 | 168 | 1.7 | 12.2 | 0.00 | 0.00 | 0.00 | 33 | 1007.8 |
| 20260505212558 | 78 | 223 | 4.3 | 13.0 | 0.00 | 0.00 | 0.00 | 33 | 1007.8 |
| 20260505212056 | 77 | 148 | 6.1 | 13.0 | 0.00 | 0.00 | 0.00 | 33 | 1007.7 |
| 20260505211613 | 78 | 246 | 3.5 | 14.8 | 0.00 | 0.00 | 0.00 | 33 | 1007.6 |
| 20260505211056 | 78 | 240 | 3.5 | 14.8 | 0.00 | 0.00 | 0.00 | 32 | 1007.5 |
| 20260505210557 | 79 | 223 | 3.5 | 14.8 | 0.00 | 0.00 | 0.00 | 32 | 1007.6 |
| 20260505210058 | 80 | 194 | 2.6 | 14.8 | 0.00 | 0.00 | 0.00 | 31 | 1007.4 |
| 20260505205557 | 81 | 142 | 4.3 | 14.8 | 0.00 | 0.00 | 0.00 | 30 | 1007.3 |
| 20260505205057 | 81 | 117 | 3.5 | 14.8 | 0.00 | 0.00 | 0.00 | 30 | 1007.4 |
| 20260505204558 | 81 | 234 | 2.6 | 18.2 | 0.00 | 0.00 | 0.00 | 31 | 1007.5 |
| 20260505204056 | 80 | 163 | 7.0 | 18.2 | 0.00 | 0.00 | 0.00 | 31 | 1007.5 |
| 20260505203556 | 80 | 168 | 7.8 | 16.5 | 0.00 | 0.00 | 0.00 | 30 | 1007.6 |
| 20260505203059 | 80 | 192 | 5.2 | 16.5 | 0.00 | 0.00 | 0.00 | 29 | 1007.6 |
| 20260505202556 | 80 | 210 | 5.2 | 13.9 | 0.00 | 0.00 | 0.00 | 29 | 1007.7 |
| 20260505202100 | 81 | 240 | 7.0 | 13.9 | 0.00 | 0.00 | 0.00 | 29 | 1007.5 |
| 20260505201607 | 81 | 194 | 7.0 | 13.0 | 0.00 | 0.00 | 0.00 | 28 | 1007.7 |
| 20260505201056 | 81 | 292 | 1.7 | 16.5 | 0.00 | 0.00 | 0.00 | 30 | 1007.5 |
| 20260505200557 | 81 | 167 | 6.1 | 20.0 | 0.00 | 0.00 | 0.00 | 32 | 1007.7 |
| 20260505200105 | 81 | 321 | 5.2 | 20.0 | 0.00 | 0.00 | 0.00 | 30 | 1007.6 |
| 20260505195555 | 81 | 279 | 4.3 | 20.0 | 0.00 | 0.00 | 0.00 | 29 | 1007.6 |
| 20260505195056 | 81 | 279 | 4.3 | 17.4 | 0.00 | 0.00 | 0.00 | 31 | 1007.7 |
| 20260505194606 | 81 | 225 | 6.1 | 17.4 | 0.00 | 0.00 | 0.00 | 33 | 1007.6 |
| 20260505194057 | 81 | 158 | 5.2 | 25.2 | 0.00 | 0.00 | 0.00 | 31 | 1007.7 |
| 20260505193557 | 81 | 274 | 8.7 | 25.2 | 0.00 | 0.00 | 0.00 | 30 | 1007.6 |
| 20260505193056 | 81 | 0 | 2.6 | 13.0 | 0.00 | 0.00 | 0.00 | 32 | 1007.7 |
| 20260505192556 | 81 | 211 | 3.5 | 15.6 | 0.00 | 0.00 | 0.00 | 32 | 1007.7 |
| 20260505192100 | 81 | 258 | 7.8 | 15.6 | 0.00 | 0.00 | 0.00 | 32 | 1007.7 |
| 20260505191557 | 81 | 192 | 2.6 | 18.2 | 0.00 | 0.00 | 0.00 | 29 | 1007.8 |
| 20260505191056 | 81 | 133 | 4.3 | 18.2 | 0.00 | 0.00 | 0.00 | 28 | 1007.9 |
| 20260505190557 | 81 | 136 | 8.7 | 18.2 | 0.00 | 0.00 | 0.00 | 28 | 1007.9 |
| 20260505190107 | 82 | 310 | 7.8 | 18.2 | 0.00 | 0.00 | 0.00 | 29 | 1007.9 |
| 20260505185557 | 82 | 178 | 1.7 | 16.5 | 0.00 | 0.00 | 0.00 | 32 | 1008.0 |
| 20260505185058 | 80 | 134 | 4.3 | 16.5 | 0.00 | 0.00 | 0.00 | 35 | 1008.0 |
| 20260505184604 | 79 | 136 | 6.1 | 16.5 | 0.00 | 0.00 | 0.00 | 34 | 1008.1 |
| 20260505184057 | 80 | 251 | 6.1 | 14.8 | 0.00 | 0.00 | 0.00 | 34 | 1008.1 |
| 20260505183558 | 81 | 202 | 6.1 | 14.8 | 0.00 | 0.00 | 0.00 | 35 | 1008.2 |
| 20260505182556 | 81 | 199 | 5.2 | 15.6 | 0.00 | 0.00 | 0.00 | 32 | 1008.2 |
| 20260505182056 | 81 | 128 | 6.1 | 15.6 | 0.00 | 0.00 | 0.00 | 32 | 1008.3 |
| 20260505181600 | 81 | 226 | 5.2 | 14.8 | 0.00 | 0.00 | 0.00 | 33 | 1008.4 |
| 20260505181056 | 81 | 249 | 4.3 | 12.2 | 0.00 | 0.00 | 0.00 | 32 | 1008.5 |
| 20260505180556 | 81 | 196 | 3.5 | 13.0 | 0.00 | 0.00 | 0.00 | 32 | 1008.5 |
| 20260505180109 | 81 | 154 | 4.3 | 12.2 | 0.00 | 0.00 | 0.00 | 36 | 1008.6 |
| 20260505175556 | 80 | 178 | 5.2 | 21.7 | 0.00 | 0.00 | 0.00 | 35 | 1008.5 |
| 20260505175056 | 81 | 203 | 1.7 | 21.7 | 0.00 | 0.00 | 0.00 | 38 | 1008.6 |
| 20260505174611 | 80 | 200 | 4.3 | 18.2 | 0.00 | 0.00 | 0.00 | 35 | 1008.7 |
| 20260505174056 | 80 | 169 | 3.5 | 13.9 | 0.00 | 0.00 | 0.00 | 37 | 1008.7 |
| 20260505173555 | 80 | 130 | 4.3 | 16.5 | 0.00 | 0.00 | 0.00 | 38 | 1008.8 |
| 20260505173112 | 80 | 113 | 2.6 | 16.5 | 0.00 | 0.00 | 0.00 | 37 | 1008.8 |
| 20260505172556 | 79 | 210 | 1.7 | 10.4 | 0.00 | 0.00 | 0.00 | 42 | 1008.9 |
| 20260505172056 | 79 | 190 | 3.5 | 16.5 | 0.00 | 0.00 | 0.00 | 39 | 1008.9 |
| 20260505171607 | 80 | 210 | 4.3 | 16.5 | 0.00 | 0.00 | 0.00 | 38 | 1008.9 |
| 20260505171057 | 80 | 0 | 5.2 | 13.9 | 0.00 | 0.00 | 0.00 | 38 | 1009.0 |
| 20260505170556 | 81 | 225 | 1.7 | 14.8 | 0.00 | 0.00 | 0.00 | 37 | 1009.0 |
| 20260505170105 | 79 | 0 | 5.2 | 14.8 | 0.00 | 0.00 | 0.00 | 41 | 1009.1 |
| 20260505165556 | 78 | 194 | 6.1 | 13.9 | 0.00 | 0.00 | 0.00 | 39 | 1009.2 |
| 20260505165056 | 79 | 161 | 3.5 | 13.9 | 0.00 | 0.00 | 0.00 | 39 | 1009.3 |
| 20260505164633 | 79 | 167 | 3.5 | 9.6 | 0.00 | 0.00 | 0.00 | 38 | 1009.3 |
| 20260505164057 | 79 | 221 | 2.6 | 13.0 | 0.00 | 0.00 | 0.00 | 40 | 1009.3 |
| 20260505163556 | 78 | 172 | 5.2 | 13.0 | 0.00 | 0.00 | 0.00 | 41 | 1009.4 |
| 20260505163059 | 78 | 173 | 2.6 | 10.4 | 0.00 | 0.00 | 0.00 | 39 | 1009.4 |
| 20260505162556 | 78 | 0 | 2.6 | 11.3 | 0.00 | 0.00 | 0.00 | 40 | 1009.6 |
| 20260505162056 | 78 | 210 | 3.5 | 11.3 | 0.00 | 0.00 | 0.00 | 40 | 1009.6 |
| 20260505161600 | 78 | 202 | 3.5 | 9.6 | 0.00 | 0.00 | 0.00 | 44 | 1009.6 |
| 20260505161057 | 78 | 235 | 3.5 | 9.6 | 0.00 | 0.00 | 0.00 | 41 | 1009.6 |
| 20260505160559 | 78 | 302 | 2.6 | 7.8 | 0.00 | 0.00 | 0.00 | 41 | 1009.6 |
| 20260505153100 | 75 | 0 | 3.5 | 10.4 | 0.00 | 0.00 | 0.00 | 44 | 1010.0 |
| 20260505152558 | 75 | 172 | 2.6 | 9.6 | 0.00 | 0.00 | 0.00 | 44 | 1010.0 |
| 20260505152056 | 75 | 190 | 4.3 | 9.6 | 0.00 | 0.00 | 0.00 | 46 | 1010.0 |
| 20260505151606 | 75 | 34 | 0.0 | 9.6 | 0.00 | 0.00 | 0.00 | 46 | 1010.0 |
| 20260505151056 | 75 | 194 | 3.5 | 9.6 | 0.00 | 0.00 | 0.00 | 46 | 1010.2 |
| 20260505150556 | 74 | 0 | 1.7 | 8.7 | 0.00 | 0.00 | 0.00 | 47 | 1010.2 |
| 20260505140557 | 68 | 0 | 1.7 | 7.0 | 0.00 | 0.00 | 0.00 | 54 | 1011.0 |
| 20260505140117 | 68 | 0 | 1.7 | 7.0 | 0.00 | 0.00 | 0.00 | 55 | 1011.0 |
| 20260505124605 | 64 | 157 | 0.9 | 7.0 | 0.00 | 0.00 | 0.00 | 64 | 1010.8 |
| 20260505124057 | 63 | 0 | 1.7 | 7.0 | 0.00 | 0.00 | 0.00 | 63 | 1010.9 |
| 20260505123559 | 63 | 188 | 1.7 | 6.1 | 0.00 | 0.00 | 0.00 | 63 | 1010.9 |
| 20260505123058 | 63 | 200 | 0.9 | 6.1 | 0.00 | 0.00 | 0.00 | 64 | 1010.9 |
| 20260505122559 | 63 | 150 | 0.9 | 7.0 | 0.00 | 0.00 | 0.00 | 63 | 1010.9 |
| 20260505122057 | 62 | 155 | 1.7 | 7.8 | 0.00 | 0.00 | 0.00 | 65 | 1010.7 |
| 20260505121558 | 62 | 205 | 2.6 | 7.8 | 0.00 | 0.00 | 0.00 | 66 | 1010.7 |
| 20260505121057 | 61 | 0 | 0.9 | 6.1 | 0.00 | 0.00 | 0.00 | 67 | 1010.5 |
| 20260505120557 | 60 | 0 | 0.9 | 6.1 | 0.00 | 0.00 | 0.00 | 72 | 1010.6 |
| 20260505120110 | 59 | 0 | 0.0 | 4.3 | 0.00 | 0.00 | 0.00 | 77 | 1010.6 |
| 20260505115559 | 57 | 0 | 0.0 | 6.1 | 0.00 | 0.00 | 0.00 | 84 | 1010.4 |
| 20260505115056 | 56 | 0 | 0.0 | 6.1 | 0.00 | 0.00 | 0.00 | 90 | 1010.6 |
| 20260505114556 | 55 | 0 | 0.0 | 2.6 | 0.00 | 0.00 | 0.00 | 91 | 1010.7 |
| 20260505114056 | 54 | 0 | 0.0 | 0.0 | 0.00 | 0.00 | 0.00 | 92 | 1010.7 |
| 20260505113556 | 53 | 0 | 0.0 | 0.0 | 0.00 | 0.00 | 0.00 | 91 | 1010.8 |
| 20260505113059 | 52 | 0 | 0.0 | 3.5 | 0.00 | 0.00 | 0.00 | 91 | 1010.7 |
| 20260505112556 | 52 | 0 | 0.0 | 3.5 | 0.00 | 0.00 | 0.00 | 91 | 1010.8 |
| 20260505112056 | 51 | 0 | 0.0 | 3.5 | 0.00 | 0.00 | 0.00 | 91 | 1010.7 |
| 20260505111556 | 50 | 0 | 0.0 | 1.7 | 0.00 | 0.00 | 0.00 | 90 | 1010.7 |
| 20260505111057 | 49 | 0 | 0.0 | 0.0 | 0.00 | 0.00 | 0.00 | 90 | 1010.8 |
| 20260505110557 | 49 | 0 | 0.0 | 0.0 | 0.00 | 0.00 | 0.00 | 90 | 1010.5 |
| 20260505110108 | 49 | 0 | 0.0 | 0.0 | 0.00 | 0.00 | 0.00 | 90 | 1010.5 |
| 20260505102056 | 50 | 0 | 0.0 | 2.6 | 0.00 | 0.00 | 0.00 | 90 | 1010.3 |
| 20260505101600 | 49 | 148 | 0.0 | 2.6 | 0.00 | 0.00 | 0.00 | 90 | 1010.3 |
| 20260505101056 | 49 | 88 | 0.0 | 1.7 | 0.00 | 0.00 | 0.00 | 89 | 1010.0 |
| 20260505100556 | 49 | 0 | 0.0 | 1.7 | 0.00 | 0.00 | 0.00 | 89 | 1010.2 |
| 20260505100056 | 49 | 0 | 0.0 | 0.0 | 0.00 | 0.00 | 0.00 | 89 | 1010.5 |
| 20260505095556 | 49 | 0 | 0.0 | 1.7 | 0.00 | 0.00 | 0.00 | 89 | 1010.4 |
| 20260505095056 | 49 | 0 | 0.0 | 2.6 | 0.00 | 0.00 | 0.00 | 89 | 1010.6 |
| 20260505094555 | 48 | 88 | 0.0 | 2.6 | 0.00 | 0.00 | 0.00 | 89 | 1010.4 |
| 20260505094056 | 48 | 0 | 0.0 | 1.7 | 0.00 | 0.00 | 0.00 | 88 | 1010.2 |
| 20260505093556 | 48 | 0 | 0.0 | 0.0 | 0.00 | 0.00 | 0.00 | 88 | 1010.6 |
| 20260505093056 | 48 | 0 | 0.0 | 0.0 | 0.00 | 0.00 | 0.00 | 87 | 1010.5 |
| 20260505092558 | 48 | 0 | 0.0 | 0.0 | 0.00 | 0.00 | 0.00 | 87 | 1010.3 |
| 20260505092056 | 48 | 0 | 0.0 | 0.0 | 0.00 | 0.00 | 0.00 | 87 | 1010.3 |
| 20260505091609 | 48 | 0 | 0.0 | 1.7 | 0.00 | 0.00 | 0.00 | 87 | 1010.2 |
| 20260505091056 | 48 | 0 | 0.0 | 1.7 | 0.00 | 0.00 | 0.00 | 87 | 1010.2 |
| 20260505090556 | 48 | 190 | 0.0 | 1.7 | 0.00 | 0.00 | 0.00 | 87 | 1010.0 |
| 20260505090056 | 48 | 0 | 0.0 | 0.0 | 0.00 | 0.00 | 0.00 | 87 | 1010.0 |
| 20260505085556 | 48 | 0 | 0.0 | 0.0 | 0.00 | 0.00 | 0.00 | 87 | 1010.1 |
| 20260505085056 | 48 | 0 | 0.0 | 0.9 | 0.00 | 0.00 | 0.00 | 87 | 1010.1 |
| 20260505084559 | 48 | 0 | 0.0 | 0.9 | 0.00 | 0.00 | 0.00 | 87 | 1010.0 |
| 20260505084055 | 48 | 0 | 0.0 | 0.0 | 0.00 | 0.00 | 0.00 | 87 | 1009.9 |
| 20260505083555 | 48 | 0 | 0.0 | 0.0 | 0.00 | 0.00 | 0.00 | 87 | 1009.9 |
| 20260505083058 | 48 | 0 | 0.0 | 1.7 | 0.00 | 0.00 | 0.00 | 87 | 1009.9 |
| 20260505082556 | 47 | 0 | 0.0 | 1.7 | 0.00 | 0.00 | 0.00 | 87 | 1009.9 |
| 20260505082057 | 47 | 0 | 0.0 | 1.7 | 0.00 | 0.00 | 0.00 | 87 | 1009.9 |
| 20260505081557 | 47 | 0 | 0.0 | 0.0 | 0.00 | 0.00 | 0.00 | 86 | 1009.9 |
| 20260505081057 | 47 | 0 | 0.0 | 0.0 | 0.00 | 0.00 | 0.00 | 85 | 1009.9 |
| 20260505080557 | 47 | 0 | 0.0 | 0.0 | 0.00 | 0.00 | 0.00 | 85 | 1009.8 |
| 20260505080106 | 48 | 0 | 0.0 | 0.0 | 0.00 | 0.00 | 0.00 | 85 | 1009.9 |
| 20260505075556 | 48 | 0 | 0.0 | 0.0 | 0.00 | 0.00 | 0.00 | 85 | 1009.9 |
| 20260505075056 | 48 | 0 | 0.0 | 0.0 | 0.00 | 0.00 | 0.00 | 85 | 1009.9 |
| 20260505074556 | 48 | 0 | 0.0 | 0.0 | 0.00 | 0.00 | 0.00 | 85 | 1009.9 |
| 20260505074056 | 48 | 0 | 0.0 | 0.0 | 0.00 | 0.00 | 0.00 | 85 | 1009.8 |
| 20260505073556 | 48 | 0 | 0.0 | 0.0 | 0.00 | 0.00 | 0.00 | 85 | 1009.7 |
| 20260505073103 | 48 | 0 | 0.0 | 0.0 | 0.00 | 0.00 | 0.00 | 86 | 1009.6 |
| 20260505072556 | 48 | 0 | 0.0 | 1.7 | 0.00 | 0.00 | 0.00 | 86 | 1009.6 |
| 20260505072056 | 48 | 0 | 0.0 | 1.7 | 0.00 | 0.00 | 0.00 | 86 | 1009.7 |
| 20260505071558 | 48 | 0 | 0.0 | 1.7 | 0.00 | 0.00 | 0.00 | 86 | 1009.7 |
| 20260505071057 | 48 | 0 | 0.0 | 0.0 | 0.00 | 0.00 | 0.00 | 86 | 1009.7 |
| 20260505070556 | 48 | 0 | 0.0 | 0.0 | 0.00 | 0.00 | 0.00 | 86 | 1009.6 |
| 20260505070058 | 48 | 0 | 0.0 | 0.0 | 0.00 | 0.00 | 0.00 | 86 | 1009.8 |
| 20260505065556 | 47 | 0 | 0.0 | 0.0 | 0.00 | 0.00 | 0.00 | 86 | 1009.8 |
| 20260505065057 | 47 | 0 | 0.0 | 0.0 | 0.00 | 0.00 | 0.00 | 85 | 1009.8 |
| 20260505064601 | 47 | 0 | 0.0 | 0.0 | 0.00 | 0.00 | 0.00 | 85 | 1009.8 |
| 20260505064056 | 47 | 0 | 0.0 | 0.0 | 0.00 | 0.00 | 0.00 | 84 | 1009.8 |
| 20260505063556 | 47 | 0 | 0.0 | 0.0 | 0.00 | 0.00 | 0.00 | 84 | 1009.8 |
| 20260505063114 | 47 | 0 | 0.0 | 0.0 | 0.00 | 0.00 | 0.00 | 83 | 1009.8 |
| 20260505062556 | 48 | 0 | 0.0 | 0.0 | 0.00 | 0.00 | 0.00 | 83 | 1009.9 |
| 20260505062055 | 48 | 0 | 0.0 | 0.9 | 0.00 | 0.00 | 0.00 | 82 | 1009.9 |
| 20260505061558 | 48 | 0 | 0.0 | 0.9 | 0.00 | 0.00 | 0.00 | 81 | 1009.9 |
| 20260505061056 | 48 | 0 | 0.0 | 0.0 | 0.00 | 0.00 | 0.00 | 81 | 1009.9 |
| 20260505060557 | 48 | 0 | 0.0 | 0.0 | 0.00 | 0.00 | 0.00 | 80 | 1009.9 |
| 20260505060059 | 49 | 0 | 0.0 | 1.7 | 0.00 | 0.00 | 0.00 | 80 | 1009.8 |
| 20260505055557 | 49 | 0 | 0.0 | 1.7 | 0.00 | 0.00 | 0.00 | 79 | 1009.8 |
| 20260505055057 | 49 | 202 | 0.0 | 0.0 | 0.00 | 0.00 | 0.00 | 78 | 1009.7 |
| 20260505054609 | 50 | 0 | 0.0 | 1.7 | 0.00 | 0.00 | 0.00 | 77 | 1009.7 |
| 20260505054057 | 50 | 0 | 0.0 | 1.7 | 0.00 | 0.00 | 0.00 | 77 | 1009.7 |
| 20260505053556 | 50 | 0 | 0.0 | 1.7 | 0.00 | 0.00 | 0.00 | 76 | 1009.7 |
| 20260505053102 | 51 | 0 | 0.0 | 3.5 | 0.00 | 0.00 | 0.00 | 74 | 1009.7 |
| 20260505052556 | 51 | 0 | 0.0 | 3.5 | 0.00 | 0.00 | 0.00 | 73 | 1009.7 |
| 20260505052056 | 51 | 125 | 0.0 | 3.5 | 0.00 | 0.00 | 0.00 | 73 | 1009.7 |
| 20260505051556 | 51 | 0 | 0.0 | 3.5 | 0.00 | 0.00 | 0.00 | 73 | 1009.6 |
| 20260505051057 | 52 | 0 | 0.0 | 5.2 | 0.00 | 0.00 | 0.00 | 72 | 1009.6 |
| 20260505050556 | 51 | 0 | 0.9 | 5.2 | 0.00 | 0.00 | 0.00 | 72 | 1009.7 |
| 20260505041600 | 53 | 0 | 0.0 | 1.7 | 0.00 | 0.00 | 0.00 | 67 | 1009.7 |
| 20260505041059 | 54 | 0 | 0.0 | 1.7 | 0.00 | 0.00 | 0.00 | 68 | 1009.8 |
| 20260505040600 | 54 | 0 | 0.0 | 6.1 | 0.00 | 0.00 | 0.00 | 68 | 1009.8 |
| 20260505040058 | 53 | 0 | 0.9 | 6.1 | 0.00 | 0.00 | 0.00 | 69 | 1009.8 |
| 20260505035556 | 50 | 0 | 0.0 | 4.3 | 0.00 | 0.00 | 0.00 | 73 | 1009.7 |
| 20260505035059 | 49 | 0 | 0.0 | 3.5 | 0.00 | 0.00 | 0.00 | 79 | 1009.7 |
| 20260505034558 | 49 | 0 | 0.0 | 3.5 | 0.00 | 0.00 | 0.00 | 80 | 1009.8 |
| 20260505034059 | 49 | 96 | 0.0 | 3.5 | 0.00 | 0.00 | 0.00 | 80 | 1009.7 |
| 20260505033600 | 49 | 0 | 0.0 | 3.5 | 0.00 | 0.00 | 0.00 | 80 | 1009.8 |
| 20260505033059 | 49 | 0 | 0.0 | 2.6 | 0.00 | 0.00 | 0.00 | 80 | 1009.8 |
| 20260505032556 | 49 | 0 | 0.0 | 1.7 | 0.00 | 0.00 | 0.00 | 79 | 1009.8 |
| 20260505032055 | 49 | 0 | 0.0 | 1.7 | 0.00 | 0.00 | 0.00 | 79 | 1010.0 |
| 20260505031607 | 49 | 0 | 0.0 | 1.7 | 0.00 | 0.00 | 0.00 | 79 | 1009.9 |
| 20260505031057 | 49 | 0 | 0.0 | 1.7 | 0.00 | 0.00 | 0.00 | 78 | 1009.9 |
| 20260505030556 | 50 | 0 | 0.0 | 1.7 | 0.00 | 0.00 | 0.00 | 78 | 1009.9 |
| 20260505030103 | 50 | 0 | 0.0 | 2.6 | 0.00 | 0.00 | 0.00 | 77 | 1010.0 |
| 20260505025557 | 49 | 0 | 0.0 | 4.3 | 0.00 | 0.00 | 0.00 | 78 | 1009.9 |
| 20260505025058 | 49 | 136 | 0.0 | 4.3 | 0.00 | 0.00 | 0.00 | 78 | 1009.9 |
| 20260505024606 | 49 | 0 | 0.0 | 2.6 | 0.00 | 0.00 | 0.00 | 78 | 1010.0 |
| 20260505024056 | 49 | 0 | 0.0 | 3.5 | 0.00 | 0.00 | 0.00 | 78 | 1010.0 |
| 20260505023556 | 49 | 53 | 0.0 | 3.5 | 0.00 | 0.00 | 0.00 | 78 | 1009.9 |
| 20260505023059 | 49 | 101 | 0.0 | 1.7 | 0.00 | 0.00 | 0.00 | 79 | 1010.0 |
| 20260505022556 | 49 | 0 | 0.0 | 3.5 | 0.00 | 0.00 | 0.00 | 79 | 1010.0 |
| 20260505022056 | 49 | 0 | 0.0 | 3.5 | 0.00 | 0.00 | 0.00 | 79 | 1010.0 |
| 20260505021600 | 49 | 0 | 0.0 | 1.7 | 0.00 | 0.00 | 0.00 | 79 | 1010.1 |
| 20260505021056 | 50 | 0 | 0.0 | 1.7 | 0.00 | 0.00 | 0.00 | 78 | 1010.1 |
| 20260505020556 | 50 | 104 | 0.0 | 1.7 | 0.00 | 0.00 | 0.00 | 78 | 1010.1 |
| 20260505020057 | 50 | 0 | 0.0 | 1.7 | 0.00 | 0.00 | 0.00 | 77 | 1010.0 |
| 20260505015557 | 50 | 0 | 0.0 | 0.9 | 0.00 | 0.00 | 0.00 | 76 | 1010.1 |
| 20260505015059 | 51 | 0 | 0.0 | 0.9 | 0.00 | 0.00 | 0.00 | 75 | 1010.0 |
| 20260505014610 | 51 | 0 | 0.0 | 0.9 | 0.00 | 0.00 | 0.00 | 74 | 1010.0 |
| 20260505014057 | 52 | 0 | 0.0 | 0.9 | 0.00 | 0.00 | 0.00 | 73 | 1009.9 |
| 20260505013556 | 52 | 0 | 0.0 | 0.0 | 0.00 | 0.00 | 0.00 | 72 | 1010.0 |
| 20260505013057 | 53 | 0 | 0.0 | 0.0 | 0.00 | 0.00 | 0.00 | 70 | 1009.9 |
| 20260505012556 | 53 | 0 | 0.0 | 1.7 | 0.00 | 0.00 | 0.00 | 69 | 1009.9 |
| 20260505012056 | 54 | 0 | 0.0 | 1.7 | 0.00 | 0.00 | 0.00 | 68 | 1009.9 |
| 20260505011606 | 54 | 0 | 0.0 | 1.7 | 0.00 | 0.00 | 0.00 | 66 | 1009.9 |
| 20260505011056 | 55 | 0 | 0.0 | 0.0 | 0.00 | 0.00 | 0.00 | 65 | 1009.8 |
| 20260505010556 | 56 | 0 | 0.0 | 0.9 | 0.00 | 0.00 | 0.00 | 63 | 1009.6 |
| 20260505010100 | 57 | 0 | 0.0 | 0.9 | 0.00 | 0.00 | 0.00 | 61 | 1009.6 |
| 20260505005556 | 58 | 0 | 0.0 | 1.7 | 0.00 | 0.00 | 0.00 | 59 | 1009.6 |
| 20260505005059 | 59 | 0 | 0.0 | 1.7 | 0.00 | 0.00 | 0.00 | 57 | 1009.6 |
| 20260505004555 | 60 | 0 | 0.0 | 3.5 | 0.00 | 0.00 | 0.00 | 55 | 1009.6 |
| 20260505004057 | 61 | 0 | 0.0 | 3.5 | 0.00 | 0.00 | 0.00 | 52 | 1009.6 |
| 20260505003557 | 62 | 94 | 0.0 | 2.6 | 0.00 | 0.00 | 0.00 | 50 | 1009.5 |
| 20260505002556 | 64 | 0 | 0.0 | 6.1 | 0.00 | 0.00 | 0.00 | 44 | 1009.4 |
| 20260505002056 | 64 | 0 | 0.0 | 6.1 | 0.00 | 0.00 | 0.00 | 43 | 1009.4 |
| 20260505001600 | 64 | 0 | 1.7 | 6.1 | 0.00 | 0.00 | 0.00 | 43 | 1009.3 |
| 20260505001057 | 64 | 0 | 0.0 | 5.2 | 0.00 | 0.00 | 0.00 | 43 | 1009.3 |
| 20260505000556 | 65 | 0 | 0.0 | 6.1 | 0.00 | 0.00 | 0.00 | 43 | 1009.3 |
| 20260505000116 | 65 | 0 | 0.0 | 7.8 | 0.00 | 0.00 | 0.00 | 42 | 1009.2 |
| 20260504235559 | 65 | 133 | 1.7 | 7.8 | 0.00 | 0.00 | 0.00 | 42 | 1009.2 |
| 20260504235058 | 65 | 0 | 1.7 | 7.0 | 0.00 | 0.00 | 0.00 | 42 | 1009.2 |
| 20260504234600 | 66 | 0 | 0.0 | 6.1 | 0.00 | 0.00 | 0.00 | 42 | 1009.0 |
| 20260504234056 | 66 | 0 | 0.0 | 7.8 | 0.00 | 0.00 | 0.00 | 40 | 1009.0 |
| 20260504233558 | 66 | 0 | 0.9 | 8.7 | 0.00 | 0.00 | 0.00 | 40 | 1008.8 |
| 20260504233109 | 67 | 0 | 1.7 | 8.7 | 0.00 | 0.00 | 0.00 | 40 | 1008.8 |
| 20260504232557 | 67 | 205 | 2.6 | 7.8 | 0.00 | 0.00 | 0.00 | 40 | 1008.7 |
| 20260504232057 | 67 | 0 | 0.0 | 7.8 | 0.00 | 0.00 | 0.00 | 39 | 1008.8 |
| 20260504231554 | 67 | 167 | 0.9 | 7.8 | 0.00 | 0.00 | 0.00 | 40 | 1008.7 |
| 20260504231056 | 68 | 0 | 1.7 | 7.8 | 0.00 | 0.00 | 0.00 | 39 | 1008.5 |
| 20260504230556 | 68 | 197 | 0.9 | 7.8 | 0.00 | 0.00 | 0.00 | 39 | 1008.6 |
| 20260504230057 | 68 | 190 | 0.9 | 7.8 | 0.00 | 0.00 | 0.00 | 39 | 1008.6 |
| 20260504225557 | 69 | 250 | 0.9 | 7.0 | 0.00 | 0.00 | 0.00 | 37 | 1008.6 |
| 20260504225057 | 69 | 0 | 0.9 | 8.7 | 0.00 | 0.00 | 0.00 | 38 | 1008.6 |
| 20260504224602 | 69 | 0 | 0.0 | 8.7 | 0.00 | 0.00 | 0.00 | 38 | 1008.5 |